User: anonymous   Login
Location: Theydon Bois
(51.6750°N, 0.1050°E)
Time: 04:20:16
(UTC+01:00)
Language:

USA 267 - Orbit

View from above orbital plane
View from above orbital plane
View from above satellite
View from above satellite

Ground track
Ground track

The orbit data is extracted from the following two-line orbital elements,

1 41334U 16010A   18147.06083025 0.00000000  00000-0  00000-0 0    01
2 41334 123.0034  72.5611 0003500 183.1803 176.8197 13.41412114    05
Epoch (UTC): 27 May 2018 01:27:35
Eccentricity: 0.0003500
inclination: 123.0034°
perigee height: 1101 km
apogee height: 1106 km
right ascension of ascending node: 72.5611°
argument of perigee: 183.1803°
revolutions per day: 13.41412114
mean anomaly at epoch: 176.8197°
orbit number at epoch: 0

The dashed part of the orbit path shows where the satellite is in the earth's shadow,  

DLR